Погода в Горном

Россия / Новосибирская область     55°07′08″N   83°53′53″E
темп.,
°C
ветер,
м/с
пор.,
м/с
влажн.,
%
обл.,
%
осадки,
мм/ч
давл.,
гПа
погр.,
м
22 апреля, чт
чт2201:00−3св228670 0.1 102956
04:00−3св368289 0.0 1031141
07:00−3ссв49815 0.0 1035361
10:000св686181 0.0 10371365
13:00+2св7847100 0.2 10381937
16:00+3св6748100 0.2 10391697
19:00+2св685480 0.4 10411014
22:00−2ссв39745 0.0 1043196
23 апреля, пт
пт2301:00−2ссв39865 0.0 1044291
04:00−3ссв38925 0.0 1044279
07:00−2ссв38925 0.0 1044326
10:00+2св57629 0.0 10441130
13:00+4св6846100 0.1 10431942
16:00+5св7845100 0.0 10421968
19:00+4св5855100 0.1 1042670
22:00+1св510795 0.1 1042284
24 апреля, сб
сб2401:00−1ссв38845 0.1 1041208
04:00−1с36896 0.0 1040159
07:00−1с388697 0.0 1039295
10:00+3ссв676198 0.0 10371067
13:00+5ссв5651100 0.1 10351753
16:00+6ссв5645100 0.0 10341993
19:00+5ссв465126 0.0 1033844
22:00+2ссв227019 0.0 103413
25 апреля, вс
вс2501:000с11764 0.0 103311
04:000ссв11785 0.0 103410
07:00+1ссз11775 0.0 103422
10:00+4сз11615 0.0 1033701
13:00+7зсз11515 0.0 10321322
16:00+8зсз114689 0.0 10311617
19:00+8зюз0148100 0.0 10301425
22:00+5ююз2263100 0.0 103014
26 апреля, пн
пн2601:00+4ююз1167100 0.0 103010
04:00+3ю2268100 0.0 102914
07:00+3ююв1170100 0.0 102918
10:00+6ююв235895 0.0 1029429
13:00+9юв235090 0.0 10281304
16:00+11юв334589 0.0 10261718
19:00+10ю345037 0.0 10261196
22:00+6ю226827 0.0 102729